Home > Time Zones > World Clock > Weather > Qatar > Doha > Past weeks

Flag for Qatar Weather past 2 weeks in Doha, Qatar

Now
61 °F

Passing clouds.


Feels Like: 61 °F
Forecast: 62 / 72 °F
Wind: 3 mph from West

Location: Doha International Airport

Current Time: Dec 26, 2014 at 1:19:49 AM

Latest Report: Dec 26, 2014 at 12:30 AM


Visibility: N/A

Pressure: 30.24 "Hg

Humidity: 77%

Dew point: 54 °F

Location of DohaLocation

Historic Weather in Doha — Graph

°F

Doha temperature yesterday

Maximum temperature yesterday: 72 °F (at 11:30 AM)
Minimum temperature yesterday: 63 °F (at 3:00 AM)
Average temperature yesterday: 66 °F

Past Weeks' High & Low Weather Summary

 TemperatureHumidityPressure
High82 °F (Dec 11, 1:30 PM)100% (Dec 11, 3:00 AM)30.30 "Hg (Dec 11, 3:00 AM)
Low61 °F (Dec 20, 4:30 AM)28% (Dec 11, 1:30 PM)29.95 "Hg (Dec 21, 1:30 PM)
Average70 °F67%30.13 "Hg
* Reported Midnight between Dec 10 and Dec 11 — Midnight between Dec 25 and Dec 26, Doha, Weather by CustomWeather, © 2014

Note: Actual official high and low records may vary slightly from our data, if they occured in-between our weather recording intervals... More about our weather records

Advertising

Doha weather history for previous 24 hours

 ConditionsComfort  
Time TempWeatherWind HumidityBarometerVisibility
12:00 AM
Dec 26
63 °FPassing clouds.7 mph68%30.24 "HgN/A
11:00 PM
Dec 25
63 °FPassing clouds.8 mph68%30.24 "HgN/A
10:30 PM63 °FPassing clouds.10 mph68%30.24 "HgN/A
10:00 PM64 °FClear.10 mph64%30.27 "Hg10 mi
9:30 PM64 °FClear.10 mph64%30.27 "Hg10 mi
9:00 PM64 °FClear.10 mph60%30.27 "Hg10 mi
8:00 PM64 °FPassing clouds.9 mph60%30.27 "HgN/A
7:00 PM64 °FClear.14 mph60%30.27 "Hg10 mi
6:30 PM66 °FPassing clouds.10 mph56%30.24 "HgN/A
6:00 PM66 °FClear.12 mph56%30.24 "Hg10 mi
5:00 PM68 °FPassing clouds.12 mph53%30.21 "HgN/A
4:00 PM70 °FSunny.12 mph50%30.21 "Hg10 mi
3:00 PM72 °FPassing clouds.16 mph47%30.21 "HgN/A
2:00 PM72 °FPassing clouds.16 mph44%30.21 "HgN/A
1:30 PM72 °FPassing clouds.13 mph44%30.21 "HgN/A
1:00 PM72 °FPassing clouds.17 mph47%30.21 "HgN/A
12:30 PM72 °FPassing clouds.12 mph47%30.24 "HgN/A
12:00 PM72 °FPassing clouds.16 mph47%30.24 "HgN/A
11:30 AM72 °FPassing clouds.14 mph50%30.27 "HgN/A
11:00 AM70 °FPassing clouds.14 mph53%30.27 "HgN/A
10:30 AM70 °FPassing clouds.12 mph53%30.27 "HgN/A
10:00 AM68 °FPassing clouds.12 mph53%30.30 "HgN/A
9:30 AM66 °FPassing clouds.13 mph60%30.30 "HgN/A
9:00 AM64 °FPassing clouds.5 mph60%30.30 "HgN/A
8:00 AM63 °FPassing clouds.15 mph64%30.30 "HgN/A
7:30 AM63 °FPassing clouds.12 mph68%30.27 "HgN/A
7:00 AM63 °FPassing clouds.13 mph68%30.27 "HgN/A
6:00 AM63 °FPassing clouds.16 mph68%30.27 "HgN/A
5:00 AM63 °FPassing clouds.13 mph64%30.27 "HgN/A
4:00 AM63 °FPassing clouds.12 mph59%30.24 "HgN/A
3:00 AM63 °FPassing clouds.10 mph59%30.24 "HgN/A
1:00 AM64 °FClear.12 mph56%30.27 "Hg10 mi
Weather by CustomWeather, © 2014

See weather overviewHow to use our weather pages